Regional Weather Roundup
Issued by NWS Northern Indiana

Home | Current Version | Previous Version | Text Only | Print | Product List | Glossary Off
Versions: 1 2 3 4 5 6 7 8 9 10 11 12 13 14 15 16 17 18 19 20 21 22 23 24 25 26 27 28 29 30 31 32 33 34 35 36 37 38 39 40 41 42 43 44 45 46 47 48 49 50

000
ASUS43 KIWX 190001
RWRIWX

KIWX WEATHER ROUNDUP
NATIONAL WEATHER SERVICE NORTHERN INDIANA
800 PM EDT FRI AUG 18 2017

NOTE: "FAIR" INDICATES FEW OR NO CLOUDS BELOW 12,000 FEET WITH NO
SIGNIFICANT WEATHER AND/OR OBSTRUCTIONS TO VISIBILITY.

* THESE STATIONS ARE NOT UNDER NWS QUALITY CONTROL. THEY ALSO MAY NOT
  REPORT WEATHER SUCH AS PRECIPITATION OR FOG.

INZ001>027-190100-
NORTHERN INDIANA

CITY           SKY/WX    TMP DP  RH WIND       PRES   REMARKS
GARY*          PTCLDY    81  57  44 W12       29.86R
MICHIGAN CITY* CLEAR     72  63  73 N7        29.86R
SOUTH BEND     CLEAR     76  64  66 NW6       29.86S
6HR MIN TEMP:  75; 6HR MAX TEMP:  79;

ELKHART*       CLEAR     77  63  61 W6        29.86S
GOSHEN         CLEAR     76  61  59 W8        29.86S
6HR MIN TEMP:  75; 6HR MAX TEMP:  80;

MONTICELLO*    CLEAR     76  61  59 SW3       29.87S
6HR MIN TEMP:  76; 6HR MAX TEMP:  81;

FORT WAYNE     PTCLDY    76  62  62 W9        29.88R
6HR MIN TEMP:  76; 6HR MAX TEMP:  81;

PERU/GRISSOM   CLEAR     76  65  69 W6        29.87F
6HR MIN TEMP:  76; 6HR MAX TEMP:  80;


$$
INZ028>050-190100-
CENTRAL INDIANA

CITY           SKY/WX    TMP DP  RH WIND       PRES   REMARKS
LAFAYETTE      CLEAR     77  64  64 SW5       29.87S
6HR MIN TEMP:  77; 6HR MAX TEMP:  83;

KOKOMO*        CLEAR     77  65  66 W6        29.90R
6HR MIN TEMP:  77; 6HR MAX TEMP:  80;

MUNCIE*        CLEAR     78  63  59 W6        29.90R
6HR MIN TEMP:  78; 6HR MAX TEMP:  83;

INDIANAPOLIS   PTCLDY    79  62  56 W13       29.90R
6HR MIN TEMP:  79; 6HR MAX TEMP:  85;


$$
MIZ043>046-050>051-056>058-064>065-071>073-077>080-190100-
SOUTHWEST LOWER MICHIGAN

CITY           SKY/WX    TMP DP  RH WIND       PRES   REMARKS
BATTLE CREEK   CLEAR     70  60  70 W8        29.88R
6HR MIN TEMP:  70; 6HR MAX TEMP:  74;

BENTON HARBOR  CLEAR     74  60  61 CALM      29.86S
6HR MIN TEMP:  73; 6HR MAX TEMP:  76;

COLDWATER*     CLEAR     72  60  65 W5        29.88R
6HR MIN TEMP:  72; 6HR MAX TEMP:  77;

HILLSDALE*     CLOUDY    70  59  68 NW9       29.87S
HOLLAND        PTCLDY    70  62  76 W3        29.86S
6HR MIN TEMP:  69; 6HR MAX TEMP:  72;

GRAND RAPIDS   MOCLDY    70  60  70 W12       29.85S
6HR MIN TEMP:  70; 6HR MAX TEMP:  73;

KALAMAZOO      CLEAR     72  58  61 NW7       29.87R
6HR MIN TEMP:  72; 6HR MAX TEMP:  76;

STURGIS*       CLEAR     72  63  73 CALM      29.86S
6HR MIN TEMP:  72; 6HR MAX TEMP:  77;

THREE RIVERS*  FAIR      75  61  62 NW5       29.87S
6HR MIN TEMP:  74; 6HR MAX TEMP:  78;


$$
OHZ001>008-015>018-024>025-190100-
NORTHWEST OHIO

CITY           SKY/WX    TMP DP  RH WIND       PRES   REMARKS
DEFIANCE       PTCLDY    76  61  59 VRB3      29.86R
6HR MIN TEMP:  76; 6HR MAX TEMP:  80;

FINDLAY        CLEAR     76  62  62 W9        29.85R
6HR MIN TEMP:  76; 6HR MAX TEMP:  83;

TOLEDO EXPRESS CLEAR     75  64  68 W7        29.84S
6HR MIN TEMP:  75; 6HR MAX TEMP:  80;

TOLEDO METCALF CLEAR     76  62  62 W10       29.85R
6HR MIN TEMP:  76; 6HR MAX TEMP:  81;

LIMA           CLEAR     75  64  68 W9        29.88R
6HR MIN TEMP:  75; 6HR MAX TEMP:  80;


$$
AND FOR LAKE MICHIGAN COASTAL AND OPEN LAKE BUOY OBSERVATIONS

STATION/POSITION TEMP    WIND        PRES    VSBY  WAVE
                 AIR SEA DIR/SP/G                  HT/PER
                 (F)     (DEG/KT/KT) (MB)    (MI)  (FT/S)
CALUMET HARBOR    80     220/  8/ 11 1010.3R
MICHIGAN CITY     73      30/  8/  9   N/A
BURNS HARBOR      80     250/ 10/ 13 1011.2R
SAINT JOSEPH      74     360/  1/  4 1012.2
SOUTH LAKE BUOY   71 71   60/  2/  2 1010.7          2/ 4
4 MI NW BRIDGMAN  72 74   60/  4/  6 1010.9R         2/ 5
MICHIGAN CITY     73 75   50/ 10/ 12   N/A           2/ 5

$$
&&



USA.gov is the U.S. government's official web portal to all federal, state and local government web resources and services.